• In Germany
  • List of Countries
  • For 7 days
  • Water Temperature
  • Satellite Maps
  • Weather Map
  • Weather Widgets
  • user-avatar
    Login

    Hourly Weather Jewłach

    Today, 18 January, Thursday

    Time Temperature Precipitation Wind Pressure Humidity
    00:00 +4°C° 0 mm 1 mps 760 mmHg 62%
    01:00 +4°C° 0 mm 1 mps 760 mmHg 61%
    02:00 +4°C° 0 mm 1 mps 760 mmHg 61%
    03:00 +4°C° 0 mm 1 mps 759 mmHg 59%
    04:00 +4°C° 0 mm 1 mps 759 mmHg 59%
    05:00 +4°C° 0 mm 1 mps 759 mmHg 59%
    06:00 +4°C° 0 mm 1 mps 759 mmHg 59%
    07:00 +5°C° 0 mm 1 mps 759 mmHg 57%
    08:00 +5°C° 0 mm 1 mps 759 mmHg 56%
    09:00 +6°C° 0 mm 1 mps 758 mmHg 52%
    10:00 +7°C° 0 mm 1 mps 758 mmHg 50%
    11:00 +8°C° 0 mm 1 mps 757 mmHg 48%
    12:00 +8°C° 0 mm 1 mps 757 mmHg 46%
    13:00 +9°C° 0 mm 1 mps 756 mmHg 45%
    14:00 +9°C° 0 mm 1 mps 756 mmHg 45%
    15:00 +9°C° 0 mm 1 mps 755 mmHg 45%
    16:00 +8°C° 0 mm 1 mps 755 mmHg 48%
    17:00 +7°C° 0 mm 1 mps 755 mmHg 51%
    18:00 +5°C° 0 mm 2 mps 755 mmHg 54%
    19:00 +5°C° 0 mm 2 mps 755 mmHg 55%
    20:00 +5°C° 0 mm 2 mps 755 mmHg 55%
    21:00 +5°C° 0 mm 2 mps 755 mmHg 56%
    22:00 +5°C° 0 mm 2 mps 754 mmHg 57%
    23:00 +5°C° 0 mm 2 mps 754 mmHg 58%

    Tomorrow, 19 January, Friday

    Time Temperature Precipitation Wind Pressure Humidity
    00:00 +4°C° 0 mm 3 mps 754 mmHg 59%
    01:00 +4°C° 0 mm 3 mps 754 mmHg 60%
    02:00 +4°C° 0 mm 3 mps 753 mmHg 60%
    03:00 +4°C° 0 mm 3 mps 753 mmHg 61%
    04:00 +4°C° 0 mm 3 mps 753 mmHg 61%
    05:00 +4°C° 0 mm 3 mps 754 mmHg 60%
    06:00 +4°C° 0 mm 4 mps 754 mmHg 60%
    07:00 +5°C° 0 mm 4 mps 754 mmHg 57%
    08:00 +6°C° 0 mm 4 mps 754 mmHg 54%
    09:00 +7°C° 0 mm 4 mps 754 mmHg 50%
    10:00 +9°C° 0 mm 5 mps 754 mmHg 46%
    11:00 +12°C° 0 mm 5 mps 754 mmHg 42%
    12:00 +13°C° 0 mm 5 mps 753 mmHg 38%
    13:00 +14°C° 0 mm 5 mps 754 mmHg 37%
    14:00 +14°C° 0 mm 4 mps 754 mmHg 37%
    15:00 +14°C° 0 mm 4 mps 754 mmHg 36%
    16:00 +13°C° 0 mm 4 mps 755 mmHg 40%
    17:00 +12°C° 0 mm 3 mps 755 mmHg 44%
    18:00 +12°C° 0 mm 2 mps 756 mmHg 47%
    19:00 +10°C° 0 mm 2 mps 756 mmHg 47%
    20:00 +10°C° 0 mm 2 mps 757 mmHg 47%
    21:00 +10°C° 0 mm 2 mps 757 mmHg 47%
    22:00 +9°C° 0 mm 2 mps 757 mmHg 48%
    23:00 +9°C° 0 mm 3 mps 758 mmHg 49%

    Day after tomorrow, 20 January, Saturday

    Time Temperature Precipitation Wind Pressure Humidity
    00:00 +9°C° 0 mm 3 mps 758 mmHg 50%
    01:00 +9°C° 0 mm 3 mps 758 mmHg 50%
    02:00 +9°C° 0 mm 3 mps 759 mmHg 50%
    03:00 +9°C° 0 mm 3 mps 759 mmHg 50%
    04:00 +9°C° 0 mm 3 mps 759 mmHg 51%
    05:00 +9°C° 0 mm 3 mps 760 mmHg 53%
    06:00 +9°C° 0 mm 3 mps 760 mmHg 54%
    07:00 +9°C° 0 mm 3 mps 761 mmHg 55%
    08:00 +9°C° 0 mm 2 mps 761 mmHg 56%
    09:00 +9°C° 0 mm 2 mps 762 mmHg 57%
    10:00 +10°C° 0 mm 2 mps 762 mmHg 53%
    11:00 +12°C° 0 mm 2 mps 762 mmHg 49%
    12:00 +12°C° 0 mm 3 mps 762 mmHg 46%
    13:00 +14°C° 0 mm 2 mps 762 mmHg 45%
    14:00 +14°C° 0 mm 2 mps 762 mmHg 44%
    15:00 +14°C° 0 mm 1 mps 762 mmHg 43%
    16:00 +13°C° 0 mm 2 mps 763 mmHg 49%
    17:00 +12°C° 0 mm 2 mps 764 mmHg 54%
    18:00 +10°C° 0 mm 2 mps 764 mmHg 59%
    19:00 +9°C° 0 mm 2 mps 765 mmHg 62%
    20:00 +9°C° 0 mm 2 mps 765 mmHg 64%
    21:00 +8°C° 0 mm 2 mps 765 mmHg 67%
    22:00 +8°C° 0 mm 2 mps 765 mmHg 68%
    23:00 +8°C° 0 mm 1 mps 765 mmHg 68%

    21 January, Sunday

    Time Temperature Precipitation Wind Pressure Humidity
    00:00 +8°C° 0 mm 1 mps 765 mmHg 68%
    01:00 +8°C° 0 mm 1 mps 765 mmHg 69%
    02:00 +7°C° 0 mm 1 mps 765 mmHg 69%
    03:00 +7°C° 0 mm 1 mps 765 mmHg 69%
    04:00 +7°C° 0 mm 1 mps 765 mmHg 67%
    05:00 +7°C° 0 mm 1 mps 765 mmHg 66%
    06:00 +6°C° 0 mm 2 mps 764 mmHg 64%
    07:00 +7°C° 0 mm 2 mps 764 mmHg 60%
    08:00 +7°C° 0 mm 2 mps 764 mmHg 56%
    09:00 +8°C° 0 mm 2 mps 764 mmHg 52%
    10:00 +10°C° 0 mm 3 mps 764 mmHg 47%
    11:00 +11°C° 0 mm 3 mps 763 mmHg 43%
    12:00 +12°C° 0 mm 4 mps 762 mmHg 39%
    13:00 +13°C° 0 mm 4 mps 762 mmHg 37%
    14:00 +14°C° 0 mm 4 mps 762 mmHg 35%
    15:00 +14°C° 0 mm 4 mps 761 mmHg 34%
    16:00 +13°C° 0 mm 4 mps 762 mmHg 37%
    17:00 +12°C° 0 mm 4 mps 762 mmHg 40%
    18:00 +11°C° 0 mm 3 mps 763 mmHg 42%
    19:00 +10°C° 0 mm 3 mps 763 mmHg 42%
    20:00 +10°C° 0 mm 3 mps 763 mmHg 43%
    21:00 +9°C° 0 mm 2 mps 763 mmHg 43%
    22:00 +9°C° 0 mm 2 mps 763 mmHg 43%
    23:00 +10°C° 0 mm 1 mps 763 mmHg 43%

    22 January, Monday

    Time Temperature Precipitation Wind Pressure Humidity
    00:00 +9°C° 0 mm 1 mps 763 mmHg 44%
    01:00 +9°C° 0 mm 1 mps 763 mmHg 45%
    02:00 +8°C° 0 mm 1 mps 763 mmHg 47%
    03:00 +8°C° 0 mm 1 mps 763 mmHg 49%
    04:00 +8°C° 0 mm 1 mps 762 mmHg 50%
    05:00 +8°C° 0 mm 1 mps 762 mmHg 52%
    06:00 +6°C° 0 mm 2 mps 762 mmHg 53%
    07:00 +8°C° 0 mm 1 mps 762 mmHg 52%
    08:00 +9°C° 0 mm 1 mps 761 mmHg 51%
    09:00 +9°C° 0 mm 1 mps 761 mmHg 50%
    10:00 +10°C° 0 mm 1 mps 760 mmHg 48%
    11:00 +11°C° 0 mm 1 mps 760 mmHg 46%
    12:00 +12°C° 0 mm 1 mps 759 mmHg 43%
    13:00 +12°C° 0 mm 1 mps 758 mmHg 42%
    14:00 +13°C° 0 mm 1 mps 758 mmHg 41%
    15:00 +13°C° 0 mm 1 mps 757 mmHg 40%
    16:00 +12°C° 0 mm 1 mps 757 mmHg 44%
    17:00 +10°C° 0 mm 2 mps 757 mmHg 48%
    18:00 +9°C° 0 mm 2 mps 758 mmHg 51%
    19:00 +9°C° 0 mm 2 mps 757 mmHg 51%
    20:00 +8°C° 0 mm 2 mps 757 mmHg 51%
    21:00 +8°C° 0 mm 2 mps 757 mmHg 51%
    22:00 +8°C° 0 mm 3 mps 757 mmHg 49%
    23:00 +8°C° 0 mm 3 mps 757 mmHg 48%

    23 January, Tuesday

    Time Temperature Precipitation Wind Pressure Humidity
    00:00 +8°C° 0 mm 3 mps 757 mmHg 47%
    01:00 +8°C° 0 mm 3 mps 757 mmHg 43%
    02:00 +7°C° 0 mm 4 mps 757 mmHg 40%
    03:00 +7°C° 0 mm 4 mps 757 mmHg 37%
    04:00 +7°C° 0 mm 4 mps 757 mmHg 36%
    05:00 +7°C° 0 mm 4 mps 757 mmHg 35%
    06:00 +7°C° 0 mm 4 mps 757 mmHg 33%
    07:00 +8°C° 0 mm 4 mps 757 mmHg 33%
    08:00 +8°C° 0 mm 4 mps 757 mmHg 32%
    09:00 +10°C° 0 mm 4 mps 757 mmHg 31%
    10:00 +12°C° 0 mm 4 mps 757 mmHg 28%
    11:00 +13°C° 0 mm 4 mps 756 mmHg 26%
    12:00 +15°C° 0 mm 4 mps 756 mmHg 23%
    13:00 +15°C° 0 mm 4 mps 756 mmHg 23%
    14:00 +15°C° 0 mm 4 mps 756 mmHg 23%
    15:00 +15°C° 0 mm 4 mps 756 mmHg 23%
    16:00 +14°C° 0 mm 4 mps 756 mmHg 25%
    17:00 +13°C° 0 mm 3 mps 757 mmHg 28%
    18:00 +12°C° 0 mm 3 mps 757 mmHg 31%
    19:00 +11°C° 0 mm 3 mps 757 mmHg 32%
    20:00 +12°C° 0 mm 2 mps 757 mmHg 32%
    21:00 +12°C° 0 mm 2 mps 758 mmHg 33%
    22:00 +10°C° 0 mm 2 mps 758 mmHg 35%
    23:00 +10°C° 0 mm 2 mps 758 mmHg 36%
    Show more